Theta_e
315 319 319 325 322 321 327 330 328 327 325 326 332 330 331 333 334 331 332 320 320 331 334 335 335 332 332 330 327 321 322 323 325 327 327 326 323 324 320 319 321 323 324 324 320 322 322 319 318
315 318 320 322 322 327 328 326 326 325 332 330 331 333 333 333 335 331 326 319 319 330 334 334 336 334 332 331 327 322 321 323 324 325 325 323 320 322 319 319 319 320 321 320 320 321 320 320 321
314 318 320 314 316 326 325 320 321 328 330 331 333 332 332 333 334 328 323 320 319 330 333 333 336 335 333 331 327 322 320 323 323 323 325 320 320 321 319 319 319 319 319 319 319 320 320 321 320
315 319 317 314 320 321 322 318 316 325 331 330 332 331 332 332 330 329 327 320 320 329 332 333 335 336 333 330 326 322 320 322 322 323 326 322 320 319 319 319 319 319 319 319 320 320 320 321 321
316 317 311 314 316 317 316 317 319 318 327 331 332 332 334 332 331 330 329 322 321 327 329 332 335 336 334 330 326 321 319 321 321 323 326 322 320 319 319 320 319 318 318 319 320 323 326 327 326
316 314 312 312 313 314 314 318 317 317 323 331 333 334 333 332 333 332 331 323 321 324 327 331 334 335 334 330 326 322 318 320 321 322 324 322 320 319 319 320 320 319 319 319 320 323 326 327 327
312 310 312 312 314 315 316 318 316 315 319 331 335 333 335 333 334 333 331 322 320 323 326 330 332 334 333 330 326 322 318 320 320 321 322 321 320 319 319 319 319 319 319 319 321 325 327 328 328
315 309 314 313 313 315 315 316 317 317 317 328 334 334 335 333 335 334 326 319 321 321 324 326 330 332 332 330 326 322 318 318 321 320 321 320 319 319 319 319 319 319 319 319 321 324 326 329 328
314 310 311 314 311 314 314 312 315 316 317 321 336 336 336 333 334 332 321 319 320 321 321 325 328 329 329 327 326 323 319 317 321 321 320 320 319 319 319 319 319 319 319 319 319 321 325 329 329
310 307 310 312 313 312 313 313 314 315 315 319 323 322 331 335 333 329 319 319 319 320 320 321 324 325 327 326 325 323 320 318 318 321 321 320 319 319 319 319 319 319 319 319 319 320 321 326 328
310 310 310 312 315 316 313 314 316 314 314 317 319 317 328 335 335 332 320 319 318 318 318 319 321 323 323 323 324 323 321 318 317 318 320 320 319 319 318 318 319 319 319 320 320 321 320 320 324
314 313 314 316 316 316 315 315 313 315 315 316 317 316 325 333 335 333 324 320 319 318 318 318 319 321 321 321 322 322 320 318 317 317 318 318 318 318 318 318 318 318 318 319 320 320 320 319 318
313 313 314 314 314 314 315 314 313 315 316 316 317 321 330 333 335 332 330 325 320 319 318 317 318 318 319 321 321 321 319 318 317 316 317 318 318 317 317 317 317 317 317 317 318 319 320 319 318
310 312 311 310 311 311 311 314 315 314 315 316 317 328 331 334 335 333 332 330 323 320 318 318 318 317 318 318 319 319 319 318 317 316 316 316 317 317 317 317 317 317 317 317 318 318 319 320 320
309 308 306 307 307 308 310 311 313 310 311 313 314 315 333 334 334 335 334 331 327 321 319 318 317 317 317 318 318 319 319 319 318 316 316 316 316 316 317 317 316 316 317 317 317 318 318 319 321
306 303 304 305 306 308 308 310 308 309 310 311 312 313 314 323 335 334 333 331 330 325 321 320 318 317 317 317 318 318 318 318 318 318 317 316 316 316 316 316 316 316 317 317 317 317 317 318 318
300 305 305 304 306 305 305 306 307 309 309 311 312 312 313 315 318 335 335 334 332 331 327 322 320 318 317 317 317 318 318 318 318 319 319 318 317 316 316 316 316 317 317 317 317 317 317 317 317
303 303 302 303 303 305 305 306 308 309 309 310 309 310 311 314 316 316 330 336 336 334 333 330 324 321 320 318 317 318 318 318 318 318 318 319 319 319 318 317 317 317 317 317 318 318 319 320 321
304 304 303 302 304 305 305 307 308 309 308 308 309 310 313 314 315 316 317 317 332 336 336 335 332 327 323 321 319 318 317 317 317 317 317 318 318 319 319 319 319 318 318 318 319 321 323 322 323
304 304 303 303 305 305 306 307 307 306 307 308 309 311 312 314 315 316 317 317 317 324 333 336 335 333 329 326 323 320 319 318 318 317 317 317 317 317 317 317 317 318 318 318 318 320 323 325 327
305 305 304 304 303 305 305 305 307 309 310 311 311 311 313 313 314 315 316 317 316 320 322 331 335 336 334 331 328 325 323 321 320 319 319 318 317 317 317 317 317 317 317 317 317 318 319 322 326
306 304 304 304 304 305 306 307 307 308 308 309 310 311 314 315 316 317 317 317 317 316 323 326 330 335 336 335 334 330 326 323 321 321 321 320 320 320 319 319 318 318 318 317 317 318 319 320 322
305 306 306 305 304 304 307 308 307 307 311 312 312 312 311 312 313 316 317 318 318 318 315 327 327 334 336 337 336 335 333 327 324 323 322 322 322 322 322 323 322 321 322 323 324 324 324 325 325
305 307 307 305 304 308 307 309 307 311 311 311 311 311 311 312 312 313 314 317 320 321 320 318 329 328 331 336 337 338 337 336 331 325 323 322 321 322 322 322 324 324 323 324 325 327 327 329 331
304 307 308 309 310 310 309 310 312 312 310 310 310 310 311 312 312 312 311 312 314 319 322 319 317 327 329 334 334 336 338 338 338 335 328 324 323 321 321 322 323 323 324 325 327 329 330 331 333
304 308 306 307 312 311 311 310 311 310 311 311 311 311 310 310 311 310 310 310 310 313 320 326 322 325 336 337 337 337 337 338 339 338 336 333 327 323 322 322 323 325 326 327 327 329 330 331 331
308 309 309 310 312 313 312 311 311 310 311 311 310 311 311 310 310 309 311 311 310 311 312 317 327 334 337 338 339 339 340 339 339 338 337 336 334 330 325 324 324 326 329 331 332 332 332 333 332
309 308 311 310 314 313 310 313 312 310 311 311 311 310 311 310 308 307 308 311 311 311 311 312 316 320 331 338 339 340 340 340 340 340 339 338 337 335 333 330 329 331 333 333 333 333 333 333 334
306 306 307 310 311 311 314 314 309 308 308 310 311 311 309 310 311 309 308 308 310 310 311 312 311 313 316 325 334 339 340 340 341 341 341 340 341 338 336 337 338 338 338 338 338 338 338 339 339
305 305 304 307 308 307 311 310 308 307 308 309 309 308 307 306 307 309 309 307 307 309 309 311 311 312 311 313 315 326 336 339 341 342 342 341 341 339 337 335 335 336 338 339 339 340 341 341 341
Wind_Speed
12 14 13 2 3 4 3 3 3 1 1 2 15 6 8 2 4 4 13 30 33 36 34 30 26 23 19 17 17 18 20 21 21 20 19 17 16 17 16 17 18 18 18 18 19 20 20 19 20
10 12 5 2 4 3 3 4 8 5 6 13 9 5 3 4 5 6 28 28 33 35 34 31 28 25 21 18 18 18 20 22 22 21 19 18 17 18 18 18 18 19 19 19 19 20 20 20 19
9 8 3 4 3 3 2 3 5 1 12 8 3 2 1 2 6 27 27 29 33 35 34 31 29 26 22 20 18 19 20 21 21 20 18 18 18 19 19 19 19 20 20 20 20 20 20 19 19
4 1 4 4 3 3 1 5 5 2 5 1 7 3 1 2 17 18 28 27 34 34 33 31 30 27 24 21 20 19 21 21 21 19 18 18 19 19 19 19 20 21 21 21 21 21 20 20 19
2 2 4 2 4 4 4 7 16 4 2 7 7 2 3 7 15 24 28 29 34 34 32 31 31 29 25 23 21 21 21 22 21 20 19 19 18 19 19 19 19 18 18 18 19 19 19 18 16
2 3 4 1 5 4 6 9 7 13 4 2 3 7 4 17 14 25 27 30 31 32 32 32 31 29 27 24 23 22 22 23 23 21 20 19 19 19 18 18 18 18 19 18 17 17 15 13 13
5 4 3 4 3 6 4 13 5 9 9 4 6 7 2 18 18 24 27 30 31 31 32 33 33 31 28 26 24 23 23 24 24 23 21 20 19 20 20 19 19 19 18 18 18 16 15 13 11
3 4 4 3 3 4 8 11 10 14 6 8 7 5 2 20 21 27 30 32 32 32 33 34 34 32 30 28 25 23 23 24 24 23 22 20 20 19 19 19 19 19 18 18 18 16 14 13 11
3 4 2 2 5 4 13 10 11 17 8 11 6 2 3 15 24 30 35 36 35 35 35 36 35 34 32 30 27 25 23 24 24 24 22 22 21 20 20 19 20 19 19 18 18 17 16 15 13
4 4 5 2 2 5 12 10 16 11 17 3 8 15 9 13 29 37 41 42 40 39 38 37 37 36 34 32 30 28 27 26 26 25 25 23 22 21 20 20 20 20 19 19 18 18 17 17 15
3 3 4 5 9 17 8 9 16 10 6 1 12 23 13 19 33 40 43 42 41 39 39 39 38 37 36 36 34 31 29 28 27 26 25 24 23 23 22 22 22 22 21 21 20 20 19 18 18
3 5 7 10 21 12 6 15 5 16 20 22 26 29 19 22 38 42 45 44 42 42 40 39 39 40 38 37 36 35 33 32 31 29 28 26 26 25 24 24 23 23 22 22 21 20 19 19 19
3 7 17 22 21 23 18 13 11 20 26 16 22 16 15 22 38 41 43 43 43 43 42 41 41 40 39 39 38 37 35 34 32 31 30 29 28 27 26 25 24 23 23 22 21 20 20 20 20
9 8 11 14 17 15 16 10 3 5 18 25 21 16 16 19 33 38 42 44 46 43 43 42 42 41 40 40 39 37 36 34 33 32 31 30 29 27 26 25 25 24 23 22 21 20 19 19 21
7 8 6 15 26 8 33 4 4 22 30 28 26 26 21 23 25 40 40 43 44 45 44 45 43 42 42 41 39 38 36 35 34 33 31 31 29 28 27 26 25 24 23 22 22 22 21 21 21
6 6 7 7 25 13 15 5 9 33 32 32 36 38 32 23 30 33 39 41 41 42 45 46 45 45 43 43 41 40 38 36 34 34 33 32 30 29 28 28 26 24 24 23 24 23 23 23 23
9 3 4 11 17 9 8 15 10 35 33 27 30 37 36 31 23 34 39 43 43 40 42 47 48 47 45 44 43 42 40 38 36 36 35 34 32 31 30 29 28 26 26 26 25 25 25 25 25
4 4 4 6 8 5 12 19 15 27 25 27 27 35 41 38 32 25 33 40 45 45 44 43 47 50 48 46 45 44 43 42 41 39 38 36 35 34 33 31 30 28 29 29 29 28 27 26 25
3 3 5 6 9 11 6 20 17 23 25 23 28 25 33 36 34 29 23 26 39 46 47 48 47 49 51 51 51 50 51 48 46 43 41 40 39 37 36 35 34 32 33 31 30 30 29 29 28
0 2 5 8 6 11 12 23 14 11 15 23 24 27 28 29 29 29 27 27 29 39 46 49 51 51 50 54 55 54 52 51 48 46 44 43 43 42 40 39 38 36 36 36 35 34 33 32 30
3 2 3 6 6 6 8 10 8 23 19 24 26 25 24 24 28 27 20 22 23 36 43 45 48 53 54 53 54 55 54 53 53 52 49 48 48 45 43 42 41 40 39 39 38 37 37 36 34
3 5 5 6 6 3 4 8 11 8 20 14 25 28 25 23 21 19 22 22 17 22 37 45 48 50 53 55 58 57 59 61 60 57 53 51 50 47 46 45 44 43 41 42 40 39 38 37 38
6 6 6 4 2 3 4 2 7 13 17 17 23 30 34 31 27 29 24 17 19 17 19 42 47 52 52 57 60 59 59 59 60 59 58 55 52 50 47 46 46 46 44 41 40 40 39 38 38
7 4 5 4 3 2 3 0 5 8 12 20 29 32 34 38 35 37 36 30 26 18 17 26 44 52 54 55 58 62 62 59 58 61 58 58 55 54 51 49 47 46 45 44 42 41 39 38 38
9 5 4 5 4 3 5 5 7 12 13 17 22 28 34 34 38 43 48 50 46 37 25 19 30 49 53 56 57 60 62 62 61 59 59 58 56 57 55 54 51 49 46 45 45 44 43 41 40
4 1 4 2 2 4 6 4 2 16 22 29 32 37 32 39 39 44 49 52 54 56 44 25 11 31 44 50 56 57 57 61 63 63 61 59 57 54 56 55 54 52 51 49 47 45 43 42 41
4 3 2 3 0 3 2 3 4 15 16 22 30 36 35 35 37 42 48 53 55 58 60 51 33 8 13 33 41 46 48 50 55 56 58 58 57 55 51 50 50 50 50 48 47 45 44 44 42
3 3 2 3 2 3 2 3 3 9 11 9 10 20 31 34 38 38 41 45 49 52 54 55 54 48 20 6 21 32 38 42 47 48 49 48 50 48 46 45 39 35 35 35 37 39 38 39 40
5 4 3 1 2 1 3 2 5 7 11 8 12 17 23 29 35 36 41 41 42 47 46 46 52 53 49 38 6 13 23 31 36 41 45 47 49 48 43 31 27 26 28 31 32 33 35 36 36
2 2 4 3 2 2 2 4 3 5 15 18 16 17 22 27 29 30 36 38 41 42 44 44 43 44 46 43 40 23 7 13 24 30 33 36 42 46 48 38 29 32 29 31 34 34 32 31 34
Wind_Direction
331 339 335 22 41 61 312 336 311 324 249 132 148 165 192 161 189 211 154 165 168 167 168 167 169 165 169 161 157 153 152 149 149 148 146 144 140 137 136 136 139 138 136 130 126 124 124 121 119
329 335 328 74 83 76 288 317 13 292 109 113 135 101 109 254 224 162 150 159 170 170 169 168 171 169 172 171 165 160 158 154 150 148 146 143 143 141 139 138 139 137 133 130 128 127 125 124 122
325 339 336 89 110 166 120 20 316 326 94 95 88 176 266 245 201 155 157 161 170 174 171 170 172 173 175 176 173 166 163 159 156 152 149 148 147 145 144 143 141 138 137 135 132 130 128 124 121
328 332 52 79 239 254 224 299 303 244 204 213 160 124 174 215 160 162 160 165 171 175 173 173 173 176 177 180 176 170 167 163 161 156 153 154 152 150 148 147 145 145 143 141 140 138 133 130 126
330 72 53 36 285 286 283 309 353 317 261 161 146 179 78 145 169 164 165 169 174 176 175 176 176 177 179 183 179 174 171 169 167 163 160 159 157 155 153 152 149 148 145 144 143 140 138 135 133
73 77 67 237 270 281 286 342 354 6 353 155 126 127 118 164 180 171 172 171 176 178 176 177 178 179 182 185 181 178 175 174 172 170 168 165 162 161 157 155 154 153 151 150 149 146 143 137 129
104 88 191 177 264 319 282 351 40 342 351 317 160 125 211 189 184 180 180 177 177 180 178 178 179 181 185 187 185 182 179 177 177 176 175 171 168 166 163 161 161 161 160 160 160 159 156 150 139
81 84 139 213 203 264 1 355 348 359 316 330 185 169 197 194 193 185 181 181 182 182 182 180 180 183 186 188 187 185 183 181 181 181 180 178 175 173 170 166 167 167 168 169 171 170 168 164 157
113 65 258 233 138 280 2 360 343 338 333 331 209 296 271 204 198 188 184 186 186 186 185 183 183 185 187 188 188 187 187 185 184 185 186 184 181 178 176 174 173 174 176 177 180 182 183 183 181
81 119 218 166 28 6 340 353 323 337 325 341 323 342 290 220 198 197 192 191 189 189 188 187 186 187 188 190 191 189 189 190 189 190 190 189 187 185 183 182 181 182 184 185 187 190 193 196 198
29 164 4 350 30 1 344 335 326 319 313 303 319 328 288 211 199 202 200 201 195 192 192 190 189 190 191 192 192 193 193 194 193 194 196 194 193 191 190 190 189 190 192 193 195 198 200 203 206
29 33 28 332 330 338 322 316 283 273 263 303 303 303 271 230 207 206 204 204 202 198 198 195 194 194 195 196 196 197 197 197 197 197 198 199 199 198 197 197 197 198 199 200 202 204 207 209 212
58 355 335 331 322 318 296 242 251 265 282 309 323 299 277 244 214 206 209 210 210 207 203 201 200 199 199 199 200 201 202 202 201 201 201 203 204 204 203 204 204 204 205 206 207 208 211 213 217
321 311 321 347 348 349 338 294 134 15 335 309 306 296 278 241 224 212 211 216 215 213 210 208 207 205 204 204 205 205 206 207 206 206 205 206 207 209 210 211 211 210 211 212 213 214 217 219 224
328 351 360 29 357 23 351 3 103 21 1 358 340 334 283 262 238 226 220 221 221 219 216 215 214 213 211 210 210 210 211 210 210 209 209 210 212 212 215 217 218 217 216 217 219 222 224 226 228
37 43 6 342 9 344 12 243 338 335 346 338 331 327 331 307 260 243 232 232 230 228 223 222 219 219 218 216 215 214 215 215 215 214 212 215 215 217 219 220 223 223 224 224 225 227 231 234 236
18 33 354 327 343 333 50 297 309 326 331 329 330 327 325 326 309 264 250 240 239 236 233 230 226 225 223 222 221 220 220 219 219 220 220 218 219 219 222 226 225 225 228 231 233 234 237 241 244
338 354 322 302 303 323 295 284 314 320 315 315 319 320 318 317 313 313 270 258 250 243 239 237 234 231 229 226 226 225 225 224 223 223 224 224 224 224 225 228 230 230 232 233 235 238 241 246 250
170 206 280 250 285 325 296 298 317 310 305 301 302 304 312 313 312 311 304 283 262 254 245 240 236 234 231 229 228 226 227 225 226 225 226 227 229 229 229 231 232 233 235 238 240 244 247 248 251
320 323 310 298 294 305 302 302 306 301 290 298 301 311 312 313 314 312 307 295 276 265 258 247 240 236 235 233 232 231 230 230 230 230 229 229 230 231 232 234 236 236 238 239 241 242 247 250 250
318 229 258 269 320 270 324 307 14 338 339 328 319 312 319 321 317 312 319 329 293 266 260 255 247 241 239 235 234 234 236 236 234 232 231 230 230 230 232 235 238 239 240 243 244 244 246 250 254
293 223 256 282 12 346 42 296 332 318 319 310 312 348 8 9 355 332 316 312 311 289 265 264 259 250 242 240 235 234 235 235 235 233 232 231 231 232 233 235 237 240 241 242 245 247 248 249 253
242 316 268 247 211 33 288 352 321 354 9 10 3 4 359 8 12 15 2 333 314 298 268 261 260 255 249 241 238 238 237 241 241 242 237 235 234 233 233 234 236 237 239 240 241 244 244 246 249
290 317 3 42 79 30 308 112 340 11 344 5 359 7 11 14 16 24 24 24 8 335 292 258 248 254 252 247 242 239 240 240 240 241 243 239 236 235 233 233 235 237 237 239 241 244 247 248 252
17 35 10 15 14 250 340 23 34 335 356 2 355 3 15 15 14 20 24 27 24 18 353 303 239 244 248 248 248 244 243 242 242 243 245 243 241 237 234 232 232 235 239 242 242 243 246 250 253
312 84 127 187 298 294 328 46 251 354 12 359 349 3 1 13 16 25 26 28 27 29 24 12 319 237 245 246 250 248 247 245 244 243 244 247 247 243 240 237 236 237 239 241 245 249 253 256 258
321 64 193 140 304 278 258 3 20 354 343 12 1 356 356 12 8 16 25 28 26 28 32 31 29 32 234 251 247 247 245 243 244 245 246 247 250 250 246 244 243 244 245 248 251 254 257 259 261
65 308 68 18 17 297 305 75 269 355 358 3 13 351 357 4 11 5 10 11 13 22 25 28 34 38 40 237 246 254 252 250 250 249 250 251 255 256 256 249 252 257 261 259 259 260 261 261 264
354 13 19 162 96 227 314 173 23 329 345 2 12 11 14 5 354 4 5 6 1 2 15 18 24 29 35 37 348 254 257 263 261 257 253 255 265 254 254 255 261 263 267 265 262 261 262 265 266
54 80 56 66 328 265 262 242 59 16 9 15 19 23 16 19 11 3 359 4 8 3 4 13 13 16 22 26 35 44 15 262 248 250 253 250 245 244 238 243 256 263 269 277 272 270 266 264 269